Time,TemperatureF,DewpointF,PressureIn,WindDirection,WindDirectionDegrees,WindSpeedMPH,WindSpeedGustMPH,Humidity,HourlyPrecipIn,Conditions,Clouds,dailyrainin,SoftwareType,DateUTC
2013-07-18 00:00:00,81.7,71.0,30.09,North,0,0.0,0.4,70,0.00,,,0.00,WUHU216HW,2013-07-18 04:00:00,
2013-07-18 00:01:00,81.7,71.0,30.09,North,0,0.0,0.4,70,0.00,,,0.00,WUHU216HW,2013-07-18 04:01:00,
2013-07-18 00:02:00,81.7,71.0,30.09,North,0,0.0,0.4,70,0.00,,,0.00,WUHU216HW,2013-07-18 04:02:00,
2013-07-18 00:03:00,81.7,71.0,30.09,North,0,0.0,0.4,70,0.00,,,0.00,WUHU216HW,2013-07-18 04:03:00,
2013-07-18 00:08:00,81.7,71.0,30.09,North,0,0.0,0.0,70,0.00,,,0.00,WUHU216HW,2013-07-18 04:08:00,
2013-07-18 00:13:00,81.7,71.0,30.09,North,0,0.0,0.0,70,0.00,,,0.00,WUHU216HW,2013-07-18 04:13:00,
2013-07-18 00:18:00,81.5,71.3,30.09,North,0,0.0,0.0,71,0.00,,,0.00,WUHU216HW,2013-07-18 04:18:00,
2013-07-18 00:23:00,81.5,71.3,30.09,NNE,23,0.4,0.4,71,0.00,,,0.00,WUHU216HW,2013-07-18 04:23:00,
2013-07-18 00:27:00,81.5,71.3,30.09,NNE,23,0.0,0.0,71,0.00,,,0.00,WUHU216HW,2013-07-18 04:27:00,
2013-07-18 00:28:00,81.5,71.3,30.09,NNE,23,0.0,0.4,71,0.00,,,0.00,WUHU216HW,2013-07-18 04:28:00,
2013-07-18 00:33:00,81.5,71.3,30.09,NNE,23,0.0,0.4,71,0.00,,,0.00,WUHU216HW,2013-07-18 04:33:00,
2013-07-18 00:57:00,80.8,71.4,30.09,NNW,338,0.0,0.0,73,0.00,,,0.00,WUHU216HW,2013-07-18 04:57:00,
2013-07-18 01:02:00,80.6,71.2,30.09,North,0,0.0,0.0,73,0.00,,,0.00,WUHU216HW,2013-07-18 05:02:00,
2013-07-18 01:07:00,80.6,71.7,30.09,NNW,338,0.0,0.0,74,0.00,,,0.00,WUHU216HW,2013-07-18 05:07:00,
2013-07-18 01:12:00,80.6,71.7,30.09,NNW,338,0.0,0.0,74,0.00,,,0.00,WUHU216HW,2013-07-18 05:12:00,
2013-07-18 01:17:00,80.6,72.0,30.08,North,0,0.0,0.0,75,0.00,,,0.00,WUHU216HW,2013-07-18 05:17:00,
2013-07-18 01:22:00,80.8,72.2,30.08,SE,135,0.0,0.0,75,0.00,,,0.00,WUHU216HW,2013-07-18 05:22:00,
2013-07-18 01:27:00,80.8,72.2,30.08,NE,45,0.0,0.0,75,0.00,,,0.00,WUHU216HW,2013-07-18 05:27:00,
2013-07-18 01:32:00,80.8,72.2,30.08,NE,45,0.0,0.0,75,0.00,,,0.00,WUHU216HW,2013-07-18 05:32:00,
2013-07-18 01:37:00,80.8,72.2,30.08,NE,45,0.0,0.0,75,0.00,,,0.00,WUHU216HW,2013-07-18 05:37:00,
2013-07-18 01:58:00,80.1,72.3,30.07,NE,45,0.0,0.0,77,0.00,,,0.00,WUHU216HW,2013-07-18 05:58:00,
2013-07-18 02:03:00,79.9,72.1,30.07,NE,45,0.0,0.0,77,0.00,,,0.00,WUHU216HW,2013-07-18 06:03:00,
2013-07-18 02:08:00,79.9,72.1,30.07,NE,45,0.0,0.0,77,0.00,,,0.00,WUHU216HW,2013-07-18 06:08:00,
2013-07-18 02:13:00,79.7,71.9,30.07,NE,45,0.0,0.0,77,0.00,,,0.00,WUHU216HW,2013-07-18 06:13:00,
2013-07-18 02:18:00,79.6,72.1,30.07,NE,45,0.0,0.0,78,0.00,,,0.00,WUHU216HW,2013-07-18 06:18:00,
2013-07-18 02:23:00,79.6,72.1,30.07,NE,45,0.0,0.0,78,0.00,,,0.00,WUHU216HW,2013-07-18 06:23:00,
2013-07-18 02:28:00,79.6,72.1,30.07,NNE,23,0.0,0.0,78,0.00,,,0.00,WUHU216HW,2013-07-18 06:28:00,
2013-07-18 02:33:00,79.4,71.9,30.07,NNE,23,0.0,0.0,78,0.00,,,0.00,WUHU216HW,2013-07-18 06:33:00,
2013-07-18 02:38:00,79.4,71.9,30.07,NNE,23,0.0,0.0,78,0.00,,,0.00,WUHU216HW,2013-07-18 06:38:00,
2013-07-18 02:43:00,79.2,72.2,30.07,NNE,23,0.0,0.0,79,0.00,,,0.00,WUHU216HW,2013-07-18 06:43:00,
2013-07-18 02:48:00,79.2,72.2,30.06,NNE,23,0.0,0.0,79,0.00,,,0.00,WUHU216HW,2013-07-18 06:48:00,
2013-07-18 02:53:00,79.2,72.2,30.06,NNE,23,0.0,0.0,79,0.00,,,0.00,WUHU216HW,2013-07-18 06:53:00,
2013-07-18 02:58:00,79.0,72.0,30.06,NNE,23,0.0,0.0,79,0.00,,,0.00,WUHU216HW,2013-07-18 06:58:00,
2013-07-18 03:03:00,79.0,72.0,30.06,NNE,23,0.0,0.0,79,0.00,,,0.00,WUHU216HW,2013-07-18 07:03:00,
2013-07-18 03:08:00,78.8,72.5,30.06,NNE,23,0.0,0.0,81,0.00,,,0.00,WUHU216HW,2013-07-18 07:08:00,
2013-07-18 03:13:00,78.8,72.5,30.06,NNE,23,0.0,0.0,81,0.00,,,0.00,WUHU216HW,2013-07-18 07:13:00,
2013-07-18 03:18:00,78.8,72.5,30.06,NNE,23,0.0,0.0,81,0.00,,,0.00,WUHU216HW,2013-07-18 07:18:00,
2013-07-18 03:23:00,78.8,72.5,30.06,NNE,23,0.0,0.0,81,0.00,,,0.00,WUHU216HW,2013-07-18 07:23:00,
2013-07-18 03:45:00,78.3,72.0,30.06,North,0,0.0,0.0,81,0.00,,,0.00,WUHU216HW,2013-07-18 07:45:00,
2013-07-18 03:50:00,78.3,72.0,30.06,North,0,0.0,0.0,81,0.00,,,0.00,WUHU216HW,2013-07-18 07:50:00,
2013-07-18 03:55:00,78.3,72.0,30.06,North,0,0.0,0.0,81,0.00,,,0.00,WUHU216HW,2013-07-18 07:55:00,
2013-07-18 04:00:00,78.1,71.8,30.06,North,0,0.0,0.0,81,0.00,,,0.00,WUHU216HW,2013-07-18 08:00:00,
2013-07-18 04:05:00,78.1,71.8,30.05,North,0,0.0,0.0,81,0.00,,,0.00,WUHU216HW,2013-07-18 08:05:00,
2013-07-18 04:10:00,78.1,72.2,30.05,North,0,0.0,0.0,82,0.00,,,0.00,WUHU216HW,2013-07-18 08:10:00,
2013-07-18 04:15:00,78.1,72.2,30.05,North,0,0.0,0.0,82,0.00,,,0.00,WUHU216HW,2013-07-18 08:15:00,
2013-07-18 04:20:00,77.9,72.0,30.05,North,0,0.0,0.0,82,0.00,,,0.00,WUHU216HW,2013-07-18 08:20:00,
2013-07-18 04:25:00,77.9,72.0,30.05,North,0,0.0,0.0,82,0.00,,,0.00,WUHU216HW,2013-07-18 08:25:00,
2013-07-18 04:30:00,77.9,72.0,30.05,North,0,0.0,0.0,82,0.00,,,0.00,WUHU216HW,2013-07-18 08:30:00,
2013-07-18 04:35:00,77.9,72.0,30.05,North,0,0.0,0.0,82,0.00,,,0.00,WUHU216HW,2013-07-18 08:35:00,
2013-07-18 04:40:00,77.8,72.2,30.05,North,0,0.0,0.0,83,0.00,,,0.00,WUHU216HW,2013-07-18 08:40:00,
2013-07-18 04:45:00,77.8,72.2,30.05,North,0,0.0,0.0,83,0.00,,,0.00,WUHU216HW,2013-07-18 08:45:00,
2013-07-18 04:50:00,77.8,72.2,30.05,North,0,0.0,0.0,83,0.00,,,0.00,WUHU216HW,2013-07-18 08:50:00,
2013-07-18 04:55:00,77.8,72.2,30.05,North,0,0.0,0.0,83,0.00,,,0.00,WUHU216HW,2013-07-18 08:55:00,
2013-07-18 05:00:00,77.6,72.0,30.05,North,0,0.0,0.0,83,0.00,,,0.00,WUHU216HW,2013-07-18 09:00:00,
2013-07-18 05:02:00,77.6,72.0,30.05,North,0,0.0,0.0,83,0.00,,,0.00,WUHU216HW,2013-07-18 09:02:00,
2013-07-18 05:05:00,77.6,72.0,30.05,North,0,0.0,0.0,83,0.00,,,0.00,WUHU216HW,2013-07-18 09:05:00,
2013-07-18 05:10:00,77.6,72.0,30.05,North,0,0.0,0.0,83,0.00,,,0.00,WUHU216HW,2013-07-18 09:10:00,
2013-07-18 05:32:00,77.4,71.8,30.06,North,0,0.0,0.0,83,0.00,,,0.00,WUHU216HW,2013-07-18 09:32:00,
2013-07-18 05:37:00,77.4,71.8,30.06,North,0,0.0,0.0,83,0.00,,,0.00,WUHU216HW,2013-07-18 09:37:00,
2013-07-18 05:42:00,77.6,72.0,30.05,NNW,338,0.0,0.0,83,0.00,,,0.00,WUHU216HW,2013-07-18 09:42:00,
2013-07-18 05:47:00,77.8,72.2,30.06,NE,45,0.0,0.0,83,0.00,,,0.00,WUHU216HW,2013-07-18 09:47:00,
2013-07-18 05:52:00,77.9,72.4,30.05,WNW,293,0.0,0.0,83,0.00,,,0.00,WUHU216HW,2013-07-18 09:52:00,
2013-07-18 05:57:00,77.9,72.0,30.06,NNE,23,1.1,1.1,82,0.00,,,0.00,WUHU216HW,2013-07-18 09:57:00,
2013-07-18 06:02:00,78.1,72.2,30.05,NNE,23,0.0,1.1,82,0.00,,,0.00,WUHU216HW,2013-07-18 10:02:00,
2013-07-18 06:07:00,78.1,72.2,30.05,NNE,23,0.0,0.0,82,0.00,,,0.00,WUHU216HW,2013-07-18 10:07:00,
2013-07-18 06:12:00,78.1,71.8,30.06,NNE,23,0.0,0.0,81,0.00,,,0.00,WUHU216HW,2013-07-18 10:12:00,
2013-07-18 06:17:00,78.1,71.8,30.06,NNW,338,0.0,0.0,81,0.00,,,0.00,WUHU216HW,2013-07-18 10:17:00,
2013-07-18 06:22:00,78.1,72.2,30.06,WNW,293,0.0,0.0,82,0.00,,,0.00,WUHU216HW,2013-07-18 10:22:00,
2013-07-18 06:27:00,78.3,72.0,30.06,West,270,0.0,0.0,81,0.00,,,0.00,WUHU216HW,2013-07-18 10:27:00,
2013-07-18 06:32:00,78.5,72.2,30.05,West,270,0.0,0.0,81,0.00,,,0.00,WUHU216HW,2013-07-18 10:32:00,
2013-07-18 06:37:00,78.5,72.2,30.05,West,270,0.0,0.0,81,0.00,,,0.00,WUHU216HW,2013-07-18 10:37:00,
2013-07-18 06:42:00,78.7,72.4,30.06,WNW,293,0.0,0.0,81,0.00,,,0.00,WUHU216HW,2013-07-18 10:42:00,
2013-07-18 06:47:00,78.8,72.5,30.06,WNW,293,0.0,0.0,81,0.00,,,0.00,WUHU216HW,2013-07-18 10:47:00,
2013-07-18 06:52:00,78.8,72.5,30.06,NW,315,0.0,0.0,81,0.00,,,0.00,WUHU216HW,2013-07-18 10:52:00,
2013-07-18 06:57:00,79.2,72.9,30.06,SW,225,0.0,0.0,81,0.00,,,0.00,WUHU216HW,2013-07-18 10:57:00,
2013-07-18 07:02:00,79.6,73.3,30.06,NNW,338,0.0,0.4,81,0.00,,,0.00,WUHU216HW,2013-07-18 11:02:00,
2013-07-18 07:07:00,79.7,73.5,30.07,NNW,338,0.0,0.4,81,0.00,,,0.00,WUHU216HW,2013-07-18 11:07:00,
2013-07-18 07:12:00,79.9,73.6,30.07,ENE,68,0.4,0.4,81,0.00,,,0.00,WUHU216HW,2013-07-18 11:12:00,
2013-07-18 07:17:00,80.1,73.4,30.07,North,0,0.0,0.4,80,0.00,,,0.00,WUHU216HW,2013-07-18 11:17:00,
2013-07-18 07:22:00,80.5,73.8,30.07,ESE,113,0.0,0.4,80,0.00,,,0.00,WUHU216HW,2013-07-18 11:22:00,
2013-07-18 07:27:00,80.8,73.8,30.07,South,180,0.0,0.0,79,0.00,,,0.00,WUHU216HW,2013-07-18 11:27:00,
2013-07-18 07:32:00,81.0,74.0,30.07,SW,225,0.0,0.0,79,0.00,,,0.00,WUHU216HW,2013-07-18 11:32:00,
2013-07-18 07:37:00,81.5,74.4,30.07,SSE,158,0.4,0.4,79,0.00,,,0.00,WUHU216HW,2013-07-18 11:37:00,
2013-07-18 07:42:00,81.7,73.8,30.07,ESE,113,0.4,0.4,77,0.00,,,0.00,WUHU216HW,2013-07-18 11:42:00,
2013-07-18 07:47:00,81.9,74.4,30.07,East,90,0.0,0.4,78,0.00,,,0.00,WUHU216HW,2013-07-18 11:47:00,
2013-07-18 07:52:00,82.1,74.6,30.07,East,90,0.0,0.4,78,0.00,,,0.00,WUHU216HW,2013-07-18 11:52:00,
2013-07-18 07:57:00,82.4,74.5,30.07,South,180,0.0,0.9,77,0.00,,,0.00,WUHU216HW,2013-07-18 11:57:00,
2013-07-18 08:02:00,82.8,74.9,30.07,SSE,158,0.0,0.9,77,0.00,,,0.00,WUHU216HW,2013-07-18 12:02:00,
2013-07-18 08:07:00,83.2,74.8,30.07,SSW,203,0.9,0.9,76,0.00,,,0.00,WUHU216HW,2013-07-18 12:07:00,
2013-07-18 08:12:00,84.2,75.8,30.07,SSE,158,0.2,0.9,76,0.00,,,0.00,WUHU216HW,2013-07-18 12:12:00,
2013-07-18 08:17:00,86.8,76.7,30.08,SE,135,0.0,0.9,72,0.00,,,0.00,WUHU216HW,2013-07-18 12:17:00,
2013-07-18 08:22:00,87.5,75.6,30.07,SW,225,1.3,1.3,68,0.00,,,0.00,WUHU216HW,2013-07-18 12:22:00,
2013-07-18 08:27:00,87.8,76.4,30.07,SW,225,2.0,2.0,69,0.00,,,0.00,WUHU216HW,2013-07-18 12:27:00,
2013-07-18 08:32:00,87.5,75.2,30.08,SW,225,0.9,2.0,67,0.00,,,0.00,WUHU216HW,2013-07-18 12:32:00,
2013-07-18 08:37:00,87.1,75.3,30.08,SE,135,0.0,0.9,68,0.00,,,0.00,WUHU216HW,2013-07-18 12:37:00,
2013-07-18 08:42:00,87.5,75.6,30.08,SSE,158,1.3,1.3,68,0.00,,,0.00,WUHU216HW,2013-07-18 12:42:00,
2013-07-18 08:47:00,87.5,75.6,30.08,SSW,203,0.0,1.3,68,0.00,,,0.00,WUHU216HW,2013-07-18 12:47:00,
2013-07-18 08:52:00,87.7,75.8,30.08,SSE,158,1.8,1.8,68,0.00,,,0.00,WUHU216HW,2013-07-18 12:52:00,
2013-07-18 08:57:00,88.0,76.2,30.08,SSE,158,0.4,1.8,68,0.00,,,0.00,WUHU216HW,2013-07-18 12:57:00,
2013-07-18 09:02:00,88.2,75.9,30.08,SSE,158,0.2,1.8,67,0.00,,,0.00,WUHU216HW,2013-07-18 13:02:00,
2013-07-18 09:07:00,88.7,76.4,30.08,SSE,158,0.4,0.4,67,0.00,,,0.00,WUHU216HW,2013-07-18 13:07:00,
2013-07-18 09:12:00,88.4,76.1,30.08,NE,45,0.4,0.4,67,0.00,,,0.00,WUHU216HW,2013-07-18 13:12:00,
2013-07-18 09:17:00,88.2,75.9,30.08,SSE,158,1.8,1.8,67,0.00,,,0.00,WUHU216HW,2013-07-18 13:17:00,
2013-07-18 09:22:00,87.8,75.5,30.08,SSW,203,0.4,1.8,67,0.00,,,0.00,WUHU216HW,2013-07-18 13:22:00,
2013-07-18 09:27:00,88.0,75.7,30.08,SSW,203,0.0,1.8,67,0.00,,,0.00,WUHU216HW,2013-07-18 13:27:00,
2013-07-18 09:32:00,88.2,75.9,30.08,ESE,113,0.4,0.4,67,0.00,,,0.00,WUHU216HW,2013-07-18 13:32:00,
2013-07-18 09:37:00,88.7,76.0,30.08,ESE,113,0.4,1.6,66,0.00,,,0.00,WUHU216HW,2013-07-18 13:37:00,
2013-07-18 09:42:00,88.7,76.0,30.08,SW,225,1.3,1.6,66,0.00,,,0.00,WUHU216HW,2013-07-18 13:42:00,
2013-07-18 09:47:00,88.7,76.4,30.08,SSE,158,0.4,1.3,67,0.00,,,0.00,WUHU216HW,2013-07-18 13:47:00,
2013-07-18 09:52:00,88.9,76.6,30.08,WSW,248,1.6,1.6,67,0.00,,,0.00,WUHU216HW,2013-07-18 13:52:00,
2013-07-18 09:57:00,88.9,76.2,30.08,SSE,158,1.1,1.6,66,0.00,,,0.00,WUHU216HW,2013-07-18 13:57:00,
2013-07-18 10:02:00,89.3,76.4,30.08,East,90,0.7,1.6,66,0.00,,,0.00,WUHU216HW,2013-07-18 14:02:00,
2013-07-18 10:07:00,89.5,76.6,30.08,ESE,113,0.4,1.1,66,0.00,,,0.00,WUHU216HW,2013-07-18 14:07:00,
2013-07-18 10:12:00,89.6,76.3,30.08,SW,225,1.1,1.1,65,0.00,,,0.00,WUHU216HW,2013-07-18 14:12:00,
2013-07-18 10:17:00,89.8,76.5,30.08,South,180,0.4,1.1,65,0.00,,,0.00,WUHU216HW,2013-07-18 14:17:00,
2013-07-18 10:22:00,90.2,76.3,30.08,South,180,1.8,1.8,64,0.00,,,0.00,WUHU216HW,2013-07-18 14:22:00,
2013-07-18 10:27:00,90.7,76.3,30.08,ESE,113,1.8,1.8,63,0.00,,,0.00,WUHU216HW,2013-07-18 14:27:00,
2013-07-18 10:33:00,91.3,76.9,30.07,SSE,158,0.7,1.8,63,0.00,,,0.00,WUHU216HW,2013-07-18 14:33:00,
2013-07-18 10:38:00,92.0,77.0,30.08,SW,225,0.0,1.8,62,0.00,,,0.00,WUHU216HW,2013-07-18 14:38:00,
2013-07-18 10:43:00,93.4,78.0,30.08,ENE,68,0.0,1.1,61,0.00,,,0.00,WUHU216HW,2013-07-18 14:43:00,
2013-07-18 10:48:00,93.8,78.4,30.08,NE,45,0.0,1.1,61,0.00,,,0.00,WUHU216HW,2013-07-18 14:48:00,
2013-07-18 10:53:00,94.1,78.7,30.07,NE,45,0.0,0.0,61,0.00,,,0.00,WUHU216HW,2013-07-18 14:53:00,
2013-07-18 10:58:00,96.1,78.9,30.07,NE,45,0.0,0.2,58,0.00,,,0.00,WUHU216HW,2013-07-18 14:58:00,
2013-07-18 11:03:00,96.7,78.3,30.07,SSE,158,1.1,1.1,56,0.00,,,0.00,WUHU216HW,2013-07-18 15:03:00,
2013-07-18 11:08:00,96.8,77.9,30.07,ENE,68,0.0,1.1,55,0.00,,,0.00,WUHU216HW,2013-07-18 15:08:00,
2013-07-18 11:13:00,98.1,79.7,30.07,ESE,113,0.0,0.2,56,0.00,,,0.00,WUHU216HW,2013-07-18 15:13:00,
2013-07-18 11:18:00,98.6,79.1,30.07,SSW,203,0.9,1.1,54,0.00,,,0.00,WUHU216HW,2013-07-18 15:18:00,
2013-07-18 11:23:00,99.0,79.4,30.07,ENE,68,0.0,1.1,54,0.00,,,0.00,WUHU216HW,2013-07-18 15:23:00,
2013-07-18 11:28:00,99.0,77.8,30.07,South,180,1.1,2.2,51,0.00,,,0.00,WUHU216HW,2013-07-18 15:28:00,
2013-07-18 11:33:00,98.8,77.6,30.07,ESE,113,0.7,2.2,51,0.00,,,0.00,WUHU216HW,2013-07-18 15:33:00,
2013-07-18 11:38:00,98.3,77.7,30.07,NNW,338,1.1,2.2,52,0.00,,,0.00,WUHU216HW,2013-07-18 15:38:00,
2013-07-18 11:43:00,98.3,77.1,30.07,NNW,338,0.2,2.2,51,0.00,,,0.00,WUHU216HW,2013-07-18 15:43:00,
2013-07-18 11:48:00,98.5,77.9,30.07,North,0,0.7,1.3,52,0.00,,,0.00,WUHU216HW,2013-07-18 15:48:00,
2013-07-18 11:53:00,98.3,77.7,30.07,SSW,203,0.9,1.3,52,0.00,,,0.00,WUHU216HW,2013-07-18 15:53:00,
2013-07-18 11:58:00,98.8,77.6,30.07,SE,135,1.1,1.6,51,0.00,,,0.00,WUHU216HW,2013-07-18 15:58:00,
2013-07-18 12:03:00,99.0,77.8,30.07,SE,135,0.0,1.6,51,0.00,,,0.00,WUHU216HW,2013-07-18 16:03:00,
2013-07-18 12:08:00,99.2,77.3,30.06,WSW,248,0.4,1.1,50,0.00,,,0.00,WUHU216HW,2013-07-18 16:08:00,
2013-07-18 12:13:00,99.5,77.7,30.06,SW,225,0.4,1.1,50,0.00,,,0.00,WUHU216HW,2013-07-18 16:13:00,
2013-07-18 12:18:00,99.0,75.2,30.06,WSW,248,1.8,1.8,47,0.00,,,0.00,WUHU216HW,2013-07-18 16:18:00,
2013-07-18 12:23:00,98.5,76.7,30.06,SW,225,0.7,1.8,50,0.00,,,0.00,WUHU216HW,2013-07-18 16:23:00,
2013-07-18 12:28:00,98.5,76.7,30.06,WNW,293,0.4,1.8,50,0.00,,,0.00,WUHU216HW,2013-07-18 16:28:00,
2013-07-18 12:33:00,98.8,77.6,30.06,North,0,0.7,0.7,51,0.00,,,0.00,WUHU216HW,2013-07-18 16:33:00,
2013-07-18 12:38:00,98.8,77.1,30.06,NNW,338,1.3,1.3,50,0.00,,,0.00,WUHU216HW,2013-07-18 16:38:00,
2013-07-18 12:43:00,98.3,76.5,30.06,SW,225,0.4,1.3,50,0.00,,,0.00,WUHU216HW,2013-07-18 16:43:00,
2013-07-18 12:48:00,98.3,77.1,30.06,NW,315,0.0,1.3,51,0.00,,,0.00,WUHU216HW,2013-07-18 16:48:00,
2013-07-18 12:53:00,98.8,77.6,30.06,NE,45,1.1,1.3,51,0.00,,,0.00,WUHU216HW,2013-07-18 16:53:00,
2013-07-18 12:58:00,98.5,77.2,30.06,NNE,23,0.2,1.1,51,0.00,,,0.00,WUHU216HW,2013-07-18 16:58:00,
2013-07-18 13:03:00,97.9,77.3,30.06,North,0,0.0,0.7,52,0.00,,,0.00,WUHU216HW,2013-07-18 17:03:00,
2013-07-18 13:08:00,98.6,77.4,30.05,WSW,248,0.7,0.7,51,0.00,,,0.00,WUHU216HW,2013-07-18 17:08:00,
2013-07-18 13:13:00,99.4,78.0,30.05,NNW,338,0.0,0.7,51,0.00,,,0.00,WUHU216HW,2013-07-18 17:13:00,
2013-07-18 13:18:00,99.7,78.9,30.05,NNW,338,0.0,0.0,52,0.00,,,0.00,WUHU216HW,2013-07-18 17:18:00,
2013-07-18 13:23:00,97.7,76.1,30.05,North,0,0.4,0.4,50,0.00,,,0.00,WUHU216HW,2013-07-18 17:23:00,
2013-07-18 13:28:00,96.1,75.7,30.05,North,0,0.0,0.4,52,0.00,,,0.00,WUHU216HW,2013-07-18 17:28:00,
2013-07-18 13:33:00,95.0,75.8,30.05,North,0,0.0,0.4,54,0.00,,,0.00,WUHU216HW,2013-07-18 17:33:00,
2013-07-18 13:38:00,95.0,75.8,30.05,SE,135,0.9,0.9,54,0.00,,,0.00,WUHU216HW,2013-07-18 17:38:00,
2013-07-18 13:43:00,94.9,76.1,30.05,WSW,248,0.0,0.9,55,0.00,,,0.00,WUHU216HW,2013-07-18 17:43:00,
2013-07-18 13:48:00,94.7,76.5,30.04,SW,225,0.0,0.9,56,0.00,,,0.00,WUHU216HW,2013-07-18 17:48:00,
2013-07-18 13:53:00,94.5,76.3,30.04,SW,225,0.0,0.0,56,0.00,,,0.00,WUHU216HW,2013-07-18 17:53:00,
2013-07-18 13:58:00,94.1,76.6,30.04,SW,225,0.0,0.9,57,0.00,,,0.00,WUHU216HW,2013-07-18 17:58:00,
2013-07-18 14:03:00,93.8,76.2,30.04,SW,225,1.3,1.3,57,0.00,,,0.00,WUHU216HW,2013-07-18 18:03:00,
2013-07-18 14:08:00,93.6,76.6,30.04,West,270,0.0,1.3,58,0.00,,,0.00,WUHU216HW,2013-07-18 18:08:00,
2013-07-18 14:13:00,94.0,77.5,30.03,NNW,338,0.0,1.3,59,0.00,,,0.00,WUHU216HW,2013-07-18 18:13:00,
2013-07-18 14:18:00,93.8,77.9,30.03,NNW,338,0.0,1.1,60,0.00,,,0.00,WUHU216HW,2013-07-18 18:18:00,
2013-07-18 14:23:00,94.0,77.5,30.03,NNW,338,0.0,0.4,59,0.00,,,0.00,WUHU216HW,2013-07-18 18:23:00,
2013-07-18 14:28:00,94.1,77.1,30.03,NNW,338,0.0,0.4,58,0.00,,,0.00,WUHU216HW,2013-07-18 18:28:00,
2013-07-18 14:33:00,94.3,77.3,30.03,NNW,338,0.0,0.0,58,0.00,,,0.00,WUHU216HW,2013-07-18 18:33:00,
2013-07-18 14:38:00,94.7,77.6,30.02,NNW,338,0.0,0.0,58,0.00,,,0.00,WUHU216HW,2013-07-18 18:38:00,
2013-07-18 14:43:00,95.2,77.6,30.03,NNW,338,0.0,0.0,57,0.00,,,0.00,WUHU216HW,2013-07-18 18:43:00,
2013-07-18 14:48:00,95.6,77.3,30.02,NNW,338,0.7,0.7,56,0.00,,,0.00,WUHU216HW,2013-07-18 18:48:00,
2013-07-18 14:53:00,96.1,77.9,30.02,North,0,1.8,1.8,56,0.00,,,0.00,WUHU216HW,2013-07-18 18:53:00,
2013-07-18 14:58:00,96.1,77.3,30.02,North,0,0.0,1.8,55,0.00,,,0.00,WUHU216HW,2013-07-18 18:58:00,
2013-07-18 15:03:00,95.6,77.3,30.02,North,0,0.4,1.8,56,0.00,,,0.00,WUHU216HW,2013-07-18 19:03:00,
2013-07-18 15:08:00,94.9,76.7,30.02,SSW,203,0.0,0.4,56,0.00,,,0.00,WUHU216HW,2013-07-18 19:08:00,
2013-07-18 15:13:00,94.7,77.6,30.02,North,0,0.0,0.4,58,0.00,,,0.00,WUHU216HW,2013-07-18 19:13:00,
2013-07-18 15:19:00,95.6,77.9,30.01,North,0,0.0,0.7,57,0.00,,,0.00,WUHU216HW,2013-07-18 19:19:00,
2013-07-18 15:24:00,96.1,77.9,30.01,North,0,0.0,0.7,56,0.00,,,0.00,WUHU216HW,2013-07-18 19:24:00,
2013-07-18 15:29:00,96.3,79.1,30.01,North,0,0.0,0.0,58,0.00,,,0.00,WUHU216HW,2013-07-18 19:29:00,
2013-07-18 15:34:00,96.8,78.5,30.01,North,0,0.0,0.0,56,0.00,,,0.00,WUHU216HW,2013-07-18 19:34:00,
2013-07-18 15:39:00,96.7,77.8,30.01,North,0,0.0,1.3,55,0.00,,,0.00,WUHU216HW,2013-07-18 19:39:00,
2013-07-18 15:44:00,96.5,77.0,30.01,NNE,23,4.3,4.3,54,0.00,,,0.00,WUHU216HW,2013-07-18 19:44:00,
2013-07-18 15:49:00,97.0,77.6,30.00,WSW,248,0.7,4.3,54,0.00,,,0.00,WUHU216HW,2013-07-18 19:49:00,
2013-07-18 15:54:00,98.5,78.9,30.00,NNW,338,2.7,4.3,54,0.00,,,0.00,WUHU216HW,2013-07-18 19:54:00,
2013-07-18 15:59:00,99.4,79.7,29.99,ENE,68,0.4,4.0,54,0.00,,,0.00,WUHU216HW,2013-07-18 19:59:00,
2013-07-18 16:04:00,99.7,79.5,29.99,East,90,0.4,1.1,53,0.00,,,0.00,WUHU216HW,2013-07-18 20:04:00,
2013-07-18 16:09:00,100.4,79.6,29.99,SE,135,0.0,2.5,52,0.00,,,0.00,WUHU216HW,2013-07-18 20:09:00,
2013-07-18 16:14:00,100.8,75.5,29.99,NW,315,2.5,2.5,45,0.00,,,0.00,WUHU216HW,2013-07-18 20:14:00,
2013-07-18 16:19:00,101.0,77.7,29.99,NNW,338,3.4,3.4,48,0.00,,,0.00,WUHU216HW,2013-07-18 20:19:00,
2013-07-18 16:24:00,102.1,79.3,29.99,North,0,0.0,3.4,49,0.00,,,0.00,WUHU216HW,2013-07-18 20:24:00,
2013-07-18 16:29:00,101.9,78.5,29.98,NNE,23,0.4,3.4,48,0.00,,,0.00,WUHU216HW,2013-07-18 20:29:00,
2013-07-18 16:34:00,101.5,79.5,29.98,North,0,1.1,1.3,50,0.00,,,0.00,WUHU216HW,2013-07-18 20:34:00,
2013-07-18 16:39:00,101.2,77.8,29.99,SSE,158,1.3,3.1,48,0.00,,,0.00,WUHU216HW,2013-07-18 20:39:00,
2013-07-18 16:44:00,101.0,77.7,29.98,North,0,0.4,3.1,48,0.00,,,0.00,WUHU216HW,2013-07-18 20:44:00,
2013-07-18 16:49:00,101.2,77.8,29.98,ENE,68,0.4,4.0,48,0.00,,,0.00,WUHU216HW,2013-07-18 20:49:00,
2013-07-18 16:54:00,101.5,78.8,29.98,West,270,0.4,4.0,49,0.00,,,0.00,WUHU216HW,2013-07-18 20:54:00,
2013-07-18 16:59:00,101.5,78.1,29.98,North,0,0.4,2.9,48,0.00,,,0.00,WUHU216HW,2013-07-18 20:59:00,
2013-07-18 17:04:00,101.5,78.1,29.98,North,0,1.1,2.9,48,0.00,,,0.00,WUHU216HW,2013-07-18 21:04:00,
2013-07-18 17:09:00,101.3,77.3,29.99,ESE,113,0.2,2.0,47,0.00,,,0.00,WUHU216HW,2013-07-18 21:09:00,
2013-07-18 17:14:00,101.5,78.8,29.99,East,90,0.9,2.0,49,0.00,,,0.00,WUHU216HW,2013-07-18 21:14:00,
2013-07-18 17:19:00,100.8,77.5,29.98,NNE,23,1.1,2.9,48,0.00,,,0.00,WUHU216HW,2013-07-18 21:19:00,
2013-07-18 17:24:00,100.1,78.8,29.98,WSW,248,2.9,2.9,51,0.00,,,0.00,WUHU216HW,2013-07-18 21:24:00,
2013-07-18 17:29:00,99.4,78.0,29.98,NNW,338,0.4,2.9,51,0.00,,,0.00,WUHU216HW,2013-07-18 21:29:00,
2013-07-18 17:34:00,99.7,78.9,29.98,East,90,0.0,0.9,52,0.00,,,0.00,WUHU216HW,2013-07-18 21:34:00,
2013-07-18 17:39:00,99.7,78.9,29.98,East,90,0.0,1.1,52,0.00,,,0.00,WUHU216HW,2013-07-18 21:39:00,
2013-07-18 17:44:00,98.8,78.1,29.97,North,0,0.9,1.6,52,0.00,,,0.00,WUHU216HW,2013-07-18 21:44:00,
2013-07-18 17:49:00,98.8,79.3,29.97,NW,315,0.0,1.6,54,0.00,,,0.00,WUHU216HW,2013-07-18 21:49:00,
2013-07-18 17:54:00,99.0,79.4,29.98,North,0,0.2,0.4,54,0.00,,,0.00,WUHU216HW,2013-07-18 21:54:00,
2013-07-18 17:59:00,99.0,78.3,29.97,North,0,0.0,0.4,52,0.00,,,0.00,WUHU216HW,2013-07-18 21:59:00,
2013-07-18 18:04:00,99.4,78.0,29.97,NE,45,0.0,0.0,51,0.00,,,0.00,WUHU216HW,2013-07-18 22:04:00,
2013-07-18 18:09:00,97.9,78.4,29.97,SW,225,0.7,1.1,54,0.00,,,0.00,WUHU216HW,2013-07-18 22:09:00,
2013-07-18 18:14:00,97.6,78.1,29.97,SW,225,0.0,1.1,54,0.00,,,0.00,WUHU216HW,2013-07-18 22:14:00,
2013-07-18 18:19:00,96.5,77.6,29.97,NNW,338,0.0,0.0,55,0.00,,,0.00,WUHU216HW,2013-07-18 22:19:00,
2013-07-18 18:24:00,95.9,77.1,29.97,North,0,0.0,0.2,55,0.00,,,0.00,WUHU216HW,2013-07-18 22:24:00,
2013-07-18 18:29:00,95.8,77.5,29.97,WSW,248,0.0,0.2,56,0.00,,,0.00,WUHU216HW,2013-07-18 22:29:00,
2013-07-18 18:34:00,95.4,77.2,29.97,North,0,0.2,0.9,56,0.00,,,0.00,WUHU216HW,2013-07-18 22:34:00,
2013-07-18 18:39:00,95.2,77.1,29.97,NNE,23,0.0,0.9,56,0.00,,,0.00,WUHU216HW,2013-07-18 22:39:00,
2013-07-18 18:45:00,95.0,76.9,29.98,SE,135,0.4,0.9,56,0.00,,,0.00,WUHU216HW,2013-07-18 22:45:00,
2013-07-18 18:50:00,95.0,76.9,29.98,ESE,113,0.4,0.4,56,0.00,,,0.00,WUHU216HW,2013-07-18 22:50:00,
2013-07-18 18:55:00,94.9,76.7,29.98,SW,225,0.0,0.4,56,0.00,,,0.00,WUHU216HW,2013-07-18 22:55:00,
2013-07-18 19:00:00,94.9,77.2,29.99,ENE,68,0.0,0.4,57,0.00,,,0.00,WUHU216HW,2013-07-18 23:00:00,
2013-07-18 19:05:00,94.5,76.9,29.99,ESE,113,1.1,1.8,57,0.00,,,0.00,WUHU216HW,2013-07-18 23:05:00,
2013-07-18 19:10:00,94.5,76.9,29.99,South,180,0.0,1.8,57,0.00,,,0.00,WUHU216HW,2013-07-18 23:10:00,
2013-07-18 19:15:00,94.0,77.0,29.99,NNW,338,2.9,2.9,58,0.00,,,0.00,WUHU216HW,2013-07-18 23:15:00,
2013-07-18 19:20:00,93.8,76.8,29.99,NW,315,0.0,2.9,58,0.00,,,0.00,WUHU216HW,2013-07-18 23:20:00,
2013-07-18 19:25:00,93.6,76.6,29.99,NNW,338,0.0,1.1,58,0.00,,,0.00,WUHU216HW,2013-07-18 23:25:00,
2013-07-18 19:30:00,93.2,76.9,29.99,North,0,0.0,0.0,59,0.00,,,0.00,WUHU216HW,2013-07-18 23:30:00,
2013-07-18 19:35:00,92.5,76.2,30.00,North,0,0.0,1.1,59,0.00,,,0.00,WUHU216HW,2013-07-18 23:35:00,
2013-07-18 19:40:00,92.2,76.3,29.99,North,0,0.0,1.1,60,0.00,,,0.00,WUHU216HW,2013-07-18 23:40:00,
2013-07-18 19:45:00,92.2,76.3,29.99,NW,315,0.0,0.0,60,0.00,,,0.00,WUHU216HW,2013-07-18 23:45:00,
2013-07-18 19:50:00,92.0,76.1,29.99,NW,315,0.0,0.0,60,0.00,,,0.00,WUHU216HW,2013-07-18 23:50:00,
2013-07-18 19:55:00,91.8,76.0,29.99,NNW,338,0.0,0.0,60,0.00,,,0.00,WUHU216HW,2013-07-18 23:55:00,
2013-07-18 20:00:00,91.6,76.2,29.99,North,0,0.0,0.0,61,0.00,,,0.00,WUHU216HW,2013-07-19 00:00:00,
2013-07-18 20:05:00,91.4,76.1,29.99,North,0,0.0,0.0,61,0.00,,,0.00,WUHU216HW,2013-07-19 00:05:00,
2013-07-18 20:10:00,91.1,75.8,29.99,North,0,0.0,0.0,61,0.00,,,0.00,WUHU216HW,2013-07-19 00:10:00,
2013-07-18 20:15:00,91.1,76.2,29.99,North,0,0.0,0.2,62,0.00,,,0.00,WUHU216HW,2013-07-19 00:15:00,
2013-07-18 20:20:00,90.7,75.9,29.99,WSW,248,0.0,0.2,62,0.00,,,0.00,WUHU216HW,2013-07-19 00:20:00,
2013-07-18 20:25:00,90.7,76.3,29.99,NE,45,0.0,0.2,63,0.00,,,0.00,WUHU216HW,2013-07-19 00:25:00,
2013-07-18 20:30:00,90.5,76.2,29.99,NNE,23,0.0,0.2,63,0.00,,,0.00,WUHU216HW,2013-07-19 00:30:00,
2013-07-18 20:35:00,90.4,76.1,29.99,NNW,338,0.0,0.0,63,0.00,,,0.00,WUHU216HW,2013-07-19 00:35:00,
2013-07-18 20:40:00,90.2,75.9,29.99,North,0,0.2,0.2,63,0.00,,,0.00,WUHU216HW,2013-07-19 00:40:00,
2013-07-18 20:45:00,90.0,76.1,29.99,South,180,0.0,0.2,64,0.00,,,0.00,WUHU216HW,2013-07-19 00:45:00,
2013-07-18 20:50:00,89.8,76.1,29.99,South,180,0.0,0.0,64,0.00,,,0.00,WUHU216HW,2013-07-19 00:50:00,
2013-07-18 20:55:00,89.6,76.3,29.99,West,270,0.0,0.0,65,0.00,,,0.00,WUHU216HW,2013-07-19 00:55:00,
2013-07-18 21:00:00,89.6,76.3,29.99,ENE,68,0.4,0.4,65,0.00,,,0.00,WUHU216HW,2013-07-19 01:00:00,
2013-07-18 21:05:00,89.3,76.0,29.99,North,0,0.0,0.4,65,0.00,,,0.00,WUHU216HW,2013-07-19 01:05:00,
2013-07-18 21:10:00,89.3,76.0,29.99,NNW,338,0.0,0.2,65,0.00,,,0.00,WUHU216HW,2013-07-19 01:10:00,
2013-07-18 21:15:00,88.9,76.2,29.99,NW,315,0.0,0.4,66,0.00,,,0.00,WUHU216HW,2013-07-19 01:15:00,
2013-07-18 21:21:00,88.7,76.0,29.99,NE,45,0.0,0.4,66,0.00,,,0.00,WUHU216HW,2013-07-19 01:21:00,
2013-07-18 21:26:00,88.6,76.2,29.99,NE,45,0.0,0.0,67,0.00,,,0.00,WUHU216HW,2013-07-19 01:26:00,
2013-07-18 21:31:00,88.4,76.1,29.99,North,0,0.0,0.7,67,0.00,,,0.00,WUHU216HW,2013-07-19 01:31:00,
2013-07-18 21:36:00,88.2,75.9,29.99,North,0,0.0,0.7,67,0.00,,,0.00,WUHU216HW,2013-07-19 01:36:00,
2013-07-18 21:41:00,88.2,75.9,29.99,South,180,0.0,0.7,67,0.00,,,0.00,WUHU216HW,2013-07-19 01:41:00,
2013-07-18 21:46:00,88.2,75.9,29.99,South,180,0.0,0.7,67,0.00,,,0.00,WUHU216HW,2013-07-19 01:46:00,
2013-07-18 21:51:00,88.2,75.9,29.99,South,180,0.0,0.0,67,0.00,,,0.00,WUHU216HW,2013-07-19 01:51:00,
2013-07-18 22:00:00,87.8,76.4,29.99,NW,315,0.0,0.0,69,0.00,,,0.00,WUHU216HW,2013-07-19 02:00:00,
2013-07-18 22:05:00,87.7,76.2,30.00,WNW,293,0.0,0.4,69,0.00,,,0.00,WUHU216HW,2013-07-19 02:05:00,
2013-07-18 22:10:00,87.7,76.2,30.00,West,270,0.0,1.1,69,0.00,,,0.00,WUHU216HW,2013-07-19 02:10:00,
2013-07-18 22:15:00,87.5,76.5,30.00,West,270,0.4,1.1,70,0.00,,,0.00,WUHU216HW,2013-07-19 02:15:00,
2013-07-18 22:20:00,87.5,76.5,30.00,North,0,0.0,0.7,70,0.00,,,0.00,WUHU216HW,2013-07-19 02:20:00,
2013-07-18 22:25:00,87.3,76.4,30.00,North,0,0.4,0.7,70,0.00,,,0.00,WUHU216HW,2013-07-19 02:25:00,
2013-07-18 22:30:00,87.1,76.2,29.99,North,0,0.0,0.4,70,0.00,,,0.00,WUHU216HW,2013-07-19 02:30:00,
2013-07-18 22:35:00,87.1,76.6,29.99,North,0,0.0,0.2,71,0.00,,,0.00,WUHU216HW,2013-07-19 02:35:00,
2013-07-18 22:40:00,86.9,76.5,29.99,WNW,293,0.0,0.4,71,0.00,,,0.00,WUHU216HW,2013-07-19 02:40:00,
2013-07-18 22:45:00,86.8,76.7,29.99,SSE,158,0.0,0.4,72,0.00,,,0.00,WUHU216HW,2013-07-19 02:45:00,
2013-07-18 22:50:00,86.8,76.7,29.99,West,270,0.0,0.2,72,0.00,,,0.00,WUHU216HW,2013-07-19 02:50:00,
2013-07-18 22:55:00,86.8,76.7,29.99,NNW,338,0.0,0.7,72,0.00,,,0.00,WUHU216HW,2013-07-19 02:55:00,
2013-07-18 23:00:00,86.4,76.3,29.99,NW,315,0.0,0.7,72,0.00,,,0.00,WUHU216HW,2013-07-19 03:00:00,
2013-07-18 23:05:00,86.4,76.3,29.99,West,270,0.0,0.0,72,0.00,,,0.00,WUHU216HW,2013-07-19 03:05:00,
2013-07-18 23:10:00,86.2,76.2,29.99,West,270,0.0,0.0,72,0.00,,,0.00,WUHU216HW,2013-07-19 03:10:00,
2013-07-18 23:15:00,86.0,76.4,29.99,North,0,0.0,0.2,73,0.00,,,0.00,WUHU216HW,2013-07-19 03:15:00,
2013-07-18 23:20:00,86.0,76.4,29.99,North,0,0.4,0.4,73,0.00,,,0.00,WUHU216HW,2013-07-19 03:20:00,
2013-07-18 23:25:00,85.9,76.2,29.99,WNW,293,0.0,0.4,73,0.00,,,0.00,WUHU216HW,2013-07-19 03:25:00,
2013-07-18 23:31:00,85.7,76.1,29.99,NNE,23,0.0,0.4,73,0.00,,,0.00,WUHU216HW,2013-07-19 03:31:00,
2013-07-18 23:36:00,85.5,76.3,29.99,North,0,0.0,0.0,74,0.00,,,0.00,WUHU216HW,2013-07-19 03:36:00,
2013-07-18 23:41:00,85.3,76.2,29.99,West,270,0.0,0.0,74,0.00,,,0.00,WUHU216HW,2013-07-19 03:41:00,
2013-07-18 23:46:00,85.3,76.5,29.99,North,0,0.0,0.2,75,0.00,,,0.00,WUHU216HW,2013-07-19 03:46:00,
2013-07-18 23:51:00,85.3,76.5,29.99,NNE,23,0.0,0.2,75,0.00,,,0.00,WUHU216HW,2013-07-19 03:51:00,
2013-07-18 23:56:00,85.3,76.9,29.99,NNE,23,0.0,0.9,76,0.00,,,0.00,WUHU216HW,2013-07-19 03:56:00,